Weather History for Beaufort, NC

Change the Weather History Date:

Thursday, February 14, 2013

  Actual Average Record
Temperature  
Mean Temperature 47 °F -  
Max Temperature 51 °F 57 °F 73 °F (1989)
Min Temperature 43 °F 35 °F 11 °F (1968)
Degree Days  
Heating Degree Days 18    
Moisture  
Dew Point 40 °F    
Average Humidity 75    
Maximum Humidity 89    
Minimum Humidity 57    
Precipitation  
Precipitation 0.00 in - - ()
Sea Level Pressure  
Sea Level Pressure 29.98 in    
Wind  
Wind Speed 9 mph (NNW)    
Max Wind Speed 15 mph    
Max Gust Speed 22 mph    
Visibility 10 miles    
Events      
Averages and records for this station are not official NWS values.
T = Trace of Precipitation, MM = Missing Value Source: NWS Daily Summary

Daily Weather History Graph

Daily Weather History Graph

Search for Another Location

Airport:

Trip Planner

Search our weather history database for the weather conditions in past years. The results will help you decide how hot, cold, wet, or windy it might be!

Date:

Astronomy

Feb. 14, 2013 Rise Set
Actual Time 6:53 AM EST 5:49 PM EST
Civil Twilight 6:27 AM EST 6:14 PM EST
Nautical Twilight 5:57 AM EST 6:44 PM EST
Astronomical Twilight 5:28 AM EST 7:13 PM EST
Moon 9:07 AM EST (2/14) 10:34 PM EST (2/14)
Length of Visible Light 11h 47m
Length of Day
10h 55m
Waxing Crescent, 21% of the Moon is Illuminated
Feb 14
Waxing Crescent
Feb 17
First Quarter
Feb 25
Full
Mar 4
Last Quarter
Mar 11
New

Hourly Weather History & Observations

Time (EST) Temp. Windchill Dew Point Humidity Pressure Visibility Wind Dir Wind Speed Gust Speed Precip Events Conditions
12:49 AM 51.8 °F - 46.4 °F 82% 29.81 in 10.0 mi West 11.5 mph - N/A   Scattered Clouds
12:58 AM 51.1 °F - 46.0 °F 83% 29.81 in 10.0 mi West 10.4 mph - N/A   Partly Cloudy
1:58 AM 50.0 °F - 46.0 °F 86% 29.81 in 10.0 mi WNW 11.5 mph - N/A   Scattered Clouds
2:07 AM 51.8 °F - 46.4 °F 82% 29.82 in 10.0 mi WNW 13.8 mph - N/A   Mostly Cloudy
2:58 AM 50.0 °F - 42.1 °F 74% 29.85 in 10.0 mi NW 15.0 mph 21.9 mph N/A   Mostly Cloudy
3:39 AM 48.2 °F - 39.2 °F 71% 29.87 in 10.0 mi NNW 12.7 mph - N/A   Scattered Clouds
3:58 AM 48.0 °F - 39.0 °F 71% 29.89 in 10.0 mi NNW 11.5 mph - N/A   Partly Cloudy
4:58 AM 45.0 °F 40.6 °F 37.9 °F 76% 29.93 in 10.0 mi NNW 8.1 mph - N/A   Clear
5:58 AM 44.1 °F 39.5 °F 37.9 °F 79% 29.95 in 10.0 mi North 8.1 mph - N/A   Clear
6:58 AM 43.0 °F 38.2 °F 37.0 °F 80% 29.96 in 10.0 mi North 8.1 mph - N/A   Clear
7:58 AM 44.1 °F 40.1 °F 37.9 °F 79% 29.99 in 10.0 mi North 6.9 mph - N/A   Clear
8:58 AM 46.0 °F 42.5 °F 37.0 °F 71% 30.01 in 10.0 mi North 6.9 mph - N/A   Clear
9:58 AM 48.0 °F - 37.9 °F 68% 30.01 in 10.0 mi North 10.4 mph - N/A   Clear
10:58 AM 48.9 °F - 39.0 °F 69% 30.04 in 10.0 mi North 11.5 mph - N/A   Scattered Clouds
11:58 AM 48.9 °F - 37.9 °F 66% 30.04 in 10.0 mi NE 6.9 mph - N/A   Partly Cloudy
12:58 PM 48.9 °F - 37.0 °F 64% 30.04 in 10.0 mi NNE 8.1 mph - N/A   Clear
1:58 PM 50.0 °F - 35.1 °F 57% 30.04 in 10.0 mi Variable 4.6 mph - N/A   Partly Cloudy
2:58 PM 50.0 °F - 37.9 °F 63% 30.02 in 10.0 mi Calm Calm - N/A   Clear
3:58 PM 50.0 °F - 37.9 °F 63% 30.02 in 10.0 mi Calm Calm - N/A   Clear
4:58 PM 48.9 °F - 39.0 °F 69% 30.03 in 10.0 mi ESE 6.9 mph - N/A   Clear
5:58 PM 46.9 °F - 39.0 °F 74% 30.06 in 10.0 mi Calm Calm - N/A   Scattered Clouds
6:58 PM 45.0 °F - 39.0 °F 80% 30.06 in 10.0 mi Calm Calm - N/A   Clear
7:58 PM 45.0 °F - 39.0 °F 80% 30.07 in 10.0 mi Calm Calm - N/A   Clear
8:58 PM 43.0 °F - 39.0 °F 86% 30.09 in 10.0 mi Calm Calm - N/A   Clear
9:58 PM 43.0 °F - 39.9 °F 89% 30.09 in 10.0 mi Calm Calm - N/A   Clear
10:58 PM 43.0 °F - 39.9 °F 89% 30.06 in 9.0 mi Calm Calm - N/A   Clear
11:58 PM 43.0 °F 39.5 °F 39.0 °F 86% 30.06 in 10.0 mi North 5.8 mph - N/A   Clear